User: anonymous   Login
Location: Edinburgh
(55.9500°N, 3.1600°W)
Time: 07:33:35
(UTC+00:00)
Language:

CUBEBUG 2 - Orbit

View from above orbital plane
View from above orbital plane
View from above satellite
View from above satellite

Ground track
Ground track

The orbit data is extracted from the following two-line orbital elements,

1 39440U 13066AA  18352.56997344  .00000204  00000-0  35613-4 0  9990
2 39440  97.5987 356.8239 0079382 317.4282  42.0791 14.75768023273119
Epoch (UTC): 18 December 2018 13:40:45
Eccentricity: 0.0079382
inclination: 97.5987°
perigee height: 587 km
apogee height: 698 km
right ascension of ascending node: 356.8239°
argument of perigee: 317.4282°
revolutions per day: 14.75768023
mean anomaly at epoch: 42.0791°
orbit number at epoch: 27311

The dashed part of the orbit path shows where the satellite is in the earth's shadow,  

DLR